Time,TemperatureF,DewpointF,PressureIn,WindDirection,WindDirectionDegrees,WindSpeedMPH,WindSpeedGustMPH,Humidity,HourlyPrecipIn,Conditions,Clouds,dailyrainin,SoftwareType,DateUTC
2013-01-02 00:03:00,47.0,44.0,-100.00,NE,50,0.0,1.0,89,-99.99,,,-99.99,,2013-01-02 05:03:00,
2013-01-02 00:12:00,47.0,44.0,-100.00,NE,50,0.0,0.0,89,-99.99,,,-99.99,,2013-01-02 05:12:00,
2013-01-02 00:22:00,47.0,44.0,-100.00,NE,50,0.0,1.0,89,-99.99,,,-99.99,,2013-01-02 05:22:00,
2013-01-02 00:33:00,47.0,44.0,-100.00,NE,50,0.0,1.0,89,-99.99,,,-99.99,,2013-01-02 05:33:00,
2013-01-02 00:42:00,47.0,44.0,-100.00,NE,50,1.0,2.0,89,-99.99,,,-99.99,,2013-01-02 05:42:00,
2013-01-02 00:52:00,47.0,44.0,-100.00,NE,50,1.0,2.0,89,-99.99,,,-99.99,,2013-01-02 05:52:00,
2013-01-02 01:02:00,47.0,44.0,-100.00,NE,50,0.0,2.0,89,-99.99,,,-99.99,,2013-01-02 06:02:00,
2013-01-02 01:12:00,47.0,44.0,-100.00,NE,50,0.0,0.0,89,-99.99,,,-99.99,,2013-01-02 06:12:00,
2013-01-02 01:22:00,47.0,44.0,-100.00,NE,50,1.0,1.0,89,-99.99,,,-99.99,,2013-01-02 06:22:00,
2013-01-02 01:32:00,47.0,44.0,-100.00,NE,50,1.0,3.0,89,-99.99,,,-99.99,,2013-01-02 06:32:00,
2013-01-02 01:42:00,47.0,44.0,-100.00,NE,50,1.0,1.0,89,-99.99,,,-99.99,,2013-01-02 06:42:00,
2013-01-02 01:52:00,46.0,43.0,-100.00,NE,50,0.0,1.0,89,-99.99,,,-99.99,,2013-01-02 06:52:00,
2013-01-02 02:02:00,46.0,43.0,-100.00,NE,50,1.0,3.0,89,-99.99,,,-99.99,,2013-01-02 07:02:00,
2013-01-02 02:12:00,46.0,43.0,-100.00,NE,50,1.0,3.0,89,-99.99,,,-99.99,,2013-01-02 07:12:00,
2013-01-02 02:22:00,46.0,43.0,-100.00,NE,55,0.0,4.0,89,-99.99,,,-99.99,,2013-01-02 07:22:00,
2013-01-02 02:32:00,46.0,43.0,-100.00,NE,55,1.0,3.0,89,-99.99,,,-99.99,,2013-01-02 07:32:00,
2013-01-02 02:42:00,47.0,44.0,-100.00,NE,55,0.0,3.0,89,-99.99,,,-99.99,,2013-01-02 07:42:00,
2013-01-02 02:52:00,47.0,44.0,-100.00,NE,55,0.0,1.0,89,-99.99,,,-99.99,,2013-01-02 07:52:00,
2013-01-02 03:02:00,47.0,44.0,-100.00,NE,55,0.0,1.0,89,-99.99,,,-99.99,,2013-01-02 08:02:00,
2013-01-02 03:12:00,47.0,44.0,-100.00,NE,55,0.0,1.0,89,-99.99,,,-99.99,,2013-01-02 08:12:00,
2013-01-02 03:22:00,47.0,44.0,-100.00,NE,55,0.0,0.0,89,-99.99,,,-99.99,,2013-01-02 08:22:00,
2013-01-02 03:32:00,47.0,44.0,-100.00,NE,55,1.0,3.0,89,-99.99,,,-99.99,,2013-01-02 08:32:00,
2013-01-02 03:42:00,46.0,43.0,-100.00,NE,55,0.0,4.0,89,-99.99,,,-99.99,,2013-01-02 08:42:00,
2013-01-02 03:52:00,47.0,44.0,-100.00,NE,55,0.0,1.0,89,-99.99,,,-99.99,,2013-01-02 08:52:00,
2013-01-02 04:02:00,47.0,44.0,-100.00,NE,55,0.0,1.0,89,-99.99,,,-99.99,,2013-01-02 09:02:00,
2013-01-02 04:12:00,47.0,44.0,-100.00,NE,55,0.0,0.0,89,-99.99,,,-99.99,,2013-01-02 09:12:00,
2013-01-02 04:22:00,47.0,44.0,-100.00,NE,55,1.0,1.0,89,-99.99,,,-99.99,,2013-01-02 09:22:00,
2013-01-02 04:32:00,47.0,44.0,-100.00,NE,55,0.0,1.0,89,-99.99,,,-99.99,,2013-01-02 09:32:00,
2013-01-02 04:43:00,47.0,44.0,-100.00,NE,55,0.0,3.0,89,-99.99,,,-99.99,,2013-01-02 09:43:00,
2013-01-02 04:52:00,47.0,44.0,-100.00,NE,55,5.0,9.0,89,-99.99,,,-99.99,,2013-01-02 09:52:00,
2013-01-02 05:02:00,47.0,44.0,-100.00,NE,55,8.0,14.0,89,-99.99,,,-99.99,,2013-01-02 10:02:00,
2013-01-02 05:12:00,47.0,44.0,-100.00,NE,55,7.0,18.0,89,-99.99,,,-99.99,,2013-01-02 10:12:00,
2013-01-02 05:22:00,46.0,43.0,-100.00,NE,55,9.0,16.0,89,-99.99,,,-99.99,,2013-01-02 10:22:00,
2013-01-02 05:32:00,47.0,42.0,-100.00,NE,50,10.0,14.0,84,-99.99,,,-99.99,,2013-01-02 10:32:00,
2013-01-02 05:42:00,47.0,40.0,-100.00,NE,45,8.0,16.0,76,-99.99,,,-99.99,,2013-01-02 10:42:00,
2013-01-02 05:52:00,47.0,38.0,-100.00,NE,40,5.0,15.0,70,-99.99,,,-99.99,,2013-01-02 10:52:00,
2013-01-02 06:02:00,47.0,37.0,-100.00,NE,35,9.0,14.0,66,-99.99,,,-99.99,,2013-01-02 11:02:00,
2013-01-02 06:12:00,48.0,35.0,-100.00,NNE,30,8.0,14.0,62,-99.99,,,-99.99,,2013-01-02 11:12:00,
2013-01-02 06:22:00,48.0,34.0,-100.00,NNE,25,6.0,11.0,60,-99.99,,,-99.99,,2013-01-02 11:22:00,
2013-01-02 06:33:00,48.0,34.0,-100.00,NNE,15,7.0,13.0,58,-99.99,,,-99.99,,2013-01-02 11:33:00,
2013-01-02 06:42:00,48.0,33.0,-100.00,NNE,15,4.0,14.0,57,-99.99,,,-99.99,,2013-01-02 11:42:00,
2013-01-02 06:52:00,48.0,33.0,-100.00,NNE,15,2.0,11.0,57,-99.99,,,-99.99,,2013-01-02 11:52:00,
2013-01-02 07:03:00,48.0,33.0,-100.00,North,10,1.0,4.0,57,-99.99,,,-99.99,,2013-01-02 12:03:00,
2013-01-02 07:12:00,48.0,34.0,-100.00,North,10,5.0,8.0,58,-99.99,,,-99.99,,2013-01-02 12:12:00,
2013-01-02 07:22:00,47.0,34.0,-100.00,NNE,15,0.0,2.0,61,-99.99,,,-99.99,,2013-01-02 12:22:00,
2013-01-02 07:33:00,46.0,36.0,-100.00,North,10,0.0,1.0,67,-99.99,,,-99.99,,2013-01-02 12:33:00,
2013-01-02 07:43:00,45.0,36.0,-100.00,NNE,15,2.0,3.0,71,-99.99,,,-99.99,,2013-01-02 12:43:00,
2013-01-02 07:53:00,45.0,37.0,-100.00,NNE,15,0.0,2.0,74,-99.99,,,-99.99,,2013-01-02 12:53:00,
2013-01-02 08:03:00,44.0,37.0,-100.00,NNE,15,0.0,2.0,76,-99.99,,,-99.99,,2013-01-02 13:03:00,
2013-01-02 08:12:00,44.0,38.0,-100.00,North,10,0.0,1.0,78,-99.99,,,-99.99,,2013-01-02 13:12:00,
2013-01-02 08:22:00,44.0,38.0,-100.00,NNE,15,1.0,2.0,80,-99.99,,,-99.99,,2013-01-02 13:22:00,
2013-01-02 08:33:00,45.0,38.0,-100.00,North,10,2.0,9.0,77,-99.99,,,-99.99,,2013-01-02 13:33:00,
2013-01-02 08:43:00,45.0,37.0,-100.00,North,10,3.0,7.0,73,-99.99,,,-99.99,,2013-01-02 13:43:00,
2013-01-02 08:52:00,46.0,36.0,-100.00,North,10,5.0,14.0,69,-99.99,,,-99.99,,2013-01-02 13:52:00,
2013-01-02 09:03:00,46.0,35.0,-100.00,NNE,15,6.0,9.0,66,-99.99,,,-99.99,,2013-01-02 14:03:00,
2013-01-02 09:12:00,46.0,34.0,-100.00,NNE,15,9.0,13.0,63,-99.99,,,-99.99,,2013-01-02 14:12:00,
2013-01-02 09:23:00,47.0,34.0,-100.00,North,10,8.0,17.0,61,-99.99,,,-99.99,,2013-01-02 14:23:00,
2013-01-02 09:33:00,46.0,33.0,-100.00,North,10,7.0,16.0,60,-99.99,,,-99.99,,2013-01-02 14:33:00,
2013-01-02 09:43:00,46.0,34.0,-100.00,North,10,1.0,9.0,61,-99.99,,,-99.99,,2013-01-02 14:43:00,
2013-01-02 09:53:00,46.0,34.0,-100.00,North,10,3.0,8.0,63,-99.99,,,-99.99,,2013-01-02 14:53:00,
2013-01-02 10:03:00,46.0,34.0,-100.00,North,10,2.0,7.0,62,-99.99,,,-99.99,,2013-01-02 15:03:00,
2013-01-02 10:12:00,48.0,35.0,-100.00,NNE,15,4.0,9.0,59,-99.99,,,-99.99,,2013-01-02 15:12:00,
2013-01-02 10:23:00,49.0,34.0,-100.00,North,10,4.0,8.0,55,-99.99,,,-99.99,,2013-01-02 15:23:00,
2013-01-02 10:33:00,48.0,33.0,-100.00,North,10,8.0,11.0,55,-99.99,,,-99.99,,2013-01-02 15:33:00,
2013-01-02 10:43:00,48.0,33.0,-100.00,North,10,4.0,10.0,56,-99.99,,,-99.99,,2013-01-02 15:43:00,
2013-01-02 10:53:00,48.0,32.0,-100.00,NNE,15,4.0,11.0,55,-99.99,,,-99.99,,2013-01-02 15:53:00,
2013-01-02 11:03:00,48.0,32.0,-100.00,North,10,4.0,14.0,54,-99.99,,,-99.99,,2013-01-02 16:03:00,
2013-01-02 11:13:00,49.0,33.0,-100.00,North,10,4.0,6.0,53,-99.99,,,-99.99,,2013-01-02 16:13:00,
2013-01-02 11:22:00,49.0,31.0,-100.00,North,10,8.0,14.0,50,-99.99,,,-99.99,,2013-01-02 16:22:00,
2013-01-02 11:33:00,49.0,31.0,-100.00,North,10,3.0,11.0,50,-99.99,,,-99.99,,2013-01-02 16:33:00,
2013-01-02 11:43:00,49.0,31.0,-100.00,North,10,5.0,9.0,49,-99.99,,,-99.99,,2013-01-02 16:43:00,
2013-01-02 11:53:00,49.0,31.0,-100.00,North,10,4.0,7.0,49,-99.99,,,-99.99,,2013-01-02 16:53:00,
2013-01-02 12:03:00,49.0,30.0,-100.00,North,10,2.0,11.0,48,-99.99,,,-99.99,,2013-01-02 17:03:00,
2013-01-02 12:13:00,50.0,32.0,-100.00,North,10,3.0,11.0,50,-99.99,,,-99.99,,2013-01-02 17:13:00,
2013-01-02 12:23:00,50.0,31.0,-100.00,North,10,4.0,8.0,47,-99.99,,,-99.99,,2013-01-02 17:23:00,
2013-01-02 12:33:00,53.0,33.0,-100.00,NNE,15,1.0,9.0,45,-99.99,,,-99.99,,2013-01-02 17:33:00,
2013-01-02 12:43:00,56.0,32.0,-100.00,NNE,15,4.0,8.0,39,-99.99,,,-99.99,,2013-01-02 17:43:00,
2013-01-02 12:53:00,55.0,29.0,-100.00,North,10,9.0,13.0,37,-99.99,,,-99.99,,2013-01-02 17:53:00,
2013-01-02 13:03:00,53.0,29.0,-100.00,North,10,5.0,12.0,40,-99.99,,,-99.99,,2013-01-02 18:03:00,
2013-01-02 13:13:00,53.0,30.0,-100.00,North,10,1.0,8.0,42,-99.99,,,-99.99,,2013-01-02 18:13:00,
2013-01-02 13:23:00,52.0,30.0,-100.00,North,10,4.0,9.0,42,-99.99,,,-99.99,,2013-01-02 18:23:00,
2013-01-02 13:33:00,53.0,30.0,-100.00,North,10,5.0,9.0,41,-99.99,,,-99.99,,2013-01-02 18:33:00,
2013-01-02 13:43:00,52.0,30.0,-100.00,North,10,4.0,10.0,42,-99.99,,,-99.99,,2013-01-02 18:43:00,
2013-01-02 13:53:00,52.0,30.0,-100.00,North,10,4.0,9.0,42,-99.99,,,-99.99,,2013-01-02 18:53:00,
2013-01-02 14:03:00,53.0,31.0,-100.00,North,10,4.0,6.0,42,-99.99,,,-99.99,,2013-01-02 19:03:00,
2013-01-02 14:13:00,53.0,31.0,-100.00,North,10,4.0,7.0,42,-99.99,,,-99.99,,2013-01-02 19:13:00,
2013-01-02 14:23:00,53.0,30.0,-100.00,North,10,4.0,8.0,41,-99.99,,,-99.99,,2013-01-02 19:23:00,
2013-01-02 14:33:00,53.0,31.0,-100.00,NNE,15,2.0,5.0,42,-99.99,,,-99.99,,2013-01-02 19:33:00,
2013-01-02 14:43:00,53.0,31.0,-100.00,NNE,15,0.0,4.0,43,-99.99,,,-99.99,,2013-01-02 19:43:00,
2013-01-02 14:52:00,53.0,31.0,-100.00,North,10,1.0,5.0,43,-99.99,,,-99.99,,2013-01-02 19:52:00,
2013-01-02 15:03:00,53.0,31.0,-100.00,North,10,1.0,4.0,43,-99.99,,,-99.99,,2013-01-02 20:03:00,
2013-01-02 15:12:00,53.0,32.0,-100.00,North,10,0.0,4.0,44,-99.99,,,-99.99,,2013-01-02 20:12:00,
2013-01-02 15:23:00,54.0,32.0,-100.00,North,10,1.0,4.0,44,-99.99,,,-99.99,,2013-01-02 20:23:00,
2013-01-02 15:33:00,54.0,32.0,-100.00,NNE,15,0.0,4.0,43,-99.99,,,-99.99,,2013-01-02 20:33:00,
2013-01-02 15:42:00,53.0,32.0,-100.00,NNE,15,1.0,2.0,44,-99.99,,,-99.99,,2013-01-02 20:42:00,
2013-01-02 15:53:00,54.0,32.0,-100.00,North,10,4.0,5.0,44,-99.99,,,-99.99,,2013-01-02 20:53:00,
2013-01-02 16:03:00,53.0,32.0,-100.00,NNE,15,1.0,4.0,44,-99.99,,,-99.99,,2013-01-02 21:03:00,
2013-01-02 16:13:00,53.0,32.0,-100.00,North,10,4.0,6.0,45,-99.99,,,-99.99,,2013-01-02 21:13:00,
2013-01-02 16:23:00,52.0,32.0,-100.00,North,10,4.0,5.0,46,-99.99,,,-99.99,,2013-01-02 21:23:00,
2013-01-02 16:33:00,52.0,32.0,-100.00,North,10,4.0,6.0,46,-99.99,,,-99.99,,2013-01-02 21:33:00,
2013-01-02 16:43:00,52.0,32.0,-100.00,NNE,15,2.0,6.0,47,-99.99,,,-99.99,,2013-01-02 21:43:00,
2013-01-02 16:52:00,52.0,32.0,-100.00,North,10,4.0,6.0,47,-99.99,,,-99.99,,2013-01-02 21:52:00,
2013-01-02 17:03:00,51.0,32.0,-100.00,North,10,2.0,4.0,48,-99.99,,,-99.99,,2013-01-02 22:03:00,
2013-01-02 17:13:00,51.0,32.0,-100.00,North,10,3.0,6.0,48,-99.99,,,-99.99,,2013-01-02 22:13:00,
2013-01-02 17:22:00,51.0,32.0,-100.00,NNE,15,4.0,6.0,49,-99.99,,,-99.99,,2013-01-02 22:22:00,
2013-01-02 17:32:00,50.0,32.0,-100.00,North,10,3.0,6.0,49,-99.99,,,-99.99,,2013-01-02 22:32:00,
2013-01-02 17:43:00,50.0,32.0,-100.00,North,10,4.0,6.0,49,-99.99,,,-99.99,,2013-01-02 22:43:00,
2013-01-02 17:52:00,50.0,32.0,-100.00,North,10,2.0,4.0,50,-99.99,,,-99.99,,2013-01-02 22:52:00,
2013-01-02 18:03:00,49.0,32.0,-100.00,North,10,4.0,8.0,51,-99.99,,,-99.99,,2013-01-02 23:03:00,
2013-01-02 18:13:00,49.0,31.0,-100.00,North,10,4.0,9.0,51,-99.99,,,-99.99,,2013-01-02 23:13:00,
2013-01-02 18:23:00,49.0,32.0,-100.00,NNE,15,0.0,6.0,52,-99.99,,,-99.99,,2013-01-02 23:23:00,
2013-01-02 18:33:00,48.0,32.0,-100.00,North,10,2.0,4.0,53,-99.99,,,-99.99,,2013-01-02 23:33:00,
2013-01-02 18:43:00,48.0,32.0,-100.00,North,10,2.0,4.0,54,-99.99,,,-99.99,,2013-01-02 23:43:00,
2013-01-02 18:52:00,48.0,32.0,-100.00,North,10,5.0,9.0,54,-99.99,,,-99.99,,2013-01-02 23:52:00,
2013-01-02 19:02:00,48.0,32.0,-100.00,North,10,3.0,9.0,54,-99.99,,,-99.99,,2013-01-03 00:02:00,
2013-01-02 19:12:00,48.0,32.0,-100.00,North,10,4.0,8.0,54,-99.99,,,-99.99,,2013-01-03 00:12:00,
2013-01-02 19:22:00,48.0,32.0,-100.00,North,10,4.0,6.0,54,-99.99,,,-99.99,,2013-01-03 00:22:00,
2013-01-02 19:38:00,48.0,31.0,-100.00,NNE,15,4.0,8.0,53,-99.99,,,-99.99,,2013-01-03 00:38:00,
2013-01-02 19:52:00,47.0,32.0,-100.00,North,10,4.0,6.0,54,-99.99,,,-99.99,,2013-01-03 00:52:00,
2013-01-02 20:02:00,47.0,32.0,-100.00,North,10,3.0,6.0,54,-99.99,,,-99.99,,2013-01-03 01:02:00,
2013-01-02 20:12:00,47.0,32.0,-100.00,North,10,1.0,4.0,54,-99.99,,,-99.99,,2013-01-03 01:12:00,
2013-01-02 20:22:00,47.0,32.0,-100.00,North,10,1.0,2.0,56,-99.99,,,-99.99,,2013-01-03 01:22:00,
2013-01-02 20:32:00,47.0,33.0,-100.00,North,10,0.0,1.0,57,-99.99,,,-99.99,,2013-01-03 01:32:00,
2013-01-02 20:43:00,47.0,34.0,-100.00,North,10,1.0,1.0,60,-99.99,,,-99.99,,2013-01-03 01:43:00,
2013-01-02 20:52:00,47.0,34.0,-100.00,NNE,15,1.0,2.0,61,-99.99,,,-99.99,,2013-01-03 01:52:00,
2013-01-02 21:02:00,46.0,34.0,-100.00,North,10,1.0,2.0,61,-99.99,,,-99.99,,2013-01-03 02:02:00,
2013-01-02 21:12:00,46.0,34.0,-100.00,North,10,1.0,3.0,62,-99.99,,,-99.99,,2013-01-03 02:12:00,
2013-01-02 21:23:00,46.0,34.0,-100.00,North,10,1.0,3.0,63,-99.99,,,-99.99,,2013-01-03 02:23:00,
2013-01-02 21:33:00,46.0,34.0,-100.00,North,10,1.0,4.0,63,-99.99,,,-99.99,,2013-01-03 02:33:00,
2013-01-02 21:43:00,46.0,34.0,-100.00,North,10,1.0,4.0,63,-99.99,,,-99.99,,2013-01-03 02:43:00,
2013-01-02 21:52:00,46.0,34.0,-100.00,North,10,1.0,4.0,63,-99.99,,,-99.99,,2013-01-03 02:52:00,
2013-01-02 22:02:00,46.0,33.0,-100.00,NNE,15,1.0,3.0,60,-99.99,,,-99.99,,2013-01-03 03:02:00,
2013-01-02 22:12:00,46.0,34.0,-100.00,North,10,0.0,1.0,61,-99.99,,,-99.99,,2013-01-03 03:12:00,
2013-01-02 22:22:00,46.0,35.0,-100.00,North,10,3.0,5.0,64,-99.99,,,-99.99,,2013-01-03 03:22:00,
2013-01-02 22:47:00,47.0,37.0,-100.00,North,10,4.0,7.0,68,-99.99,,,-99.99,,2013-01-03 03:47:00,
2013-01-02 22:52:00,47.0,38.0,-100.00,North,10,1.0,3.0,71,-99.99,,,-99.99,,2013-01-03 03:52:00,
2013-01-02 23:03:00,47.0,38.0,-100.00,North,10,1.0,6.0,72,-99.99,,,-99.99,,2013-01-03 04:03:00,
2013-01-02 23:12:00,47.0,39.0,-100.00,North,10,4.0,6.0,73,-99.99,,,-99.99,,2013-01-03 04:12:00,
2013-01-02 23:22:00,47.0,39.0,-100.00,North,10,2.0,7.0,74,-99.99,,,-99.99,,2013-01-03 04:22:00,
2013-01-02 23:32:00,46.0,39.0,-100.00,North,10,6.0,9.0,75,-99.99,,,-99.99,,2013-01-03 04:32:00,
2013-01-02 23:42:00,46.0,39.0,-100.00,North,10,2.0,11.0,77,-99.99,,,-99.99,,2013-01-03 04:42:00,
2013-01-02 23:52:00,46.0,39.0,-100.00,North,10,4.0,8.0,77,-99.99,,,-99.99,,2013-01-03 04:52:00,